Location: Chequamegon National Forest
(46.1070°N, 90.8420°W)
Time: 17:58:27
(UTC-06:00)

Daily predictions for brighter satellites

Satellite Brightness Start Highest point End
(mag) Time Altitude Azimuth Time Altitude Azimuth Time Altitude Azimuth
BREEZE-M R/B 2.7 18:05:15 10° WNW 18:07:19 75° NNE 18:11:47 10° ESE
USA 267 4.2 18:02:36 10° ENE 18:08:23 35° N 18:14:08 10° WNW
DNEPR-1 R/B 4.1 18:05:10 10° SW 18:09:18 60° NW 18:13:44 10° NNE
CZ-4 R/B 2.8 18:10:00 10° S 18:13:50 44° W 18:17:38 10° NNW
Cosmos 1378 Rocket 3.8 18:10:25 10° N 18:14:44 50° ENE 18:19:03 10° SSE
Tiangong 2 4.4 18:16:34 10° SW 18:16:59 10° SSW 18:17:24 10° SSW
Meteor 1-18 Rocket 4.2 18:11:46 10° N 18:17:19 60° ENE 18:22:48 10° SSE
Resurs 01 Rocket 3.5 18:16:21 10° E 18:18:14 13° ENE 18:20:07 10° NNE
EO 1 Del DPAF 3.7 18:15:21 10° NNE 18:18:57 38° E 18:22:32 10° SSE
FREGAT/IRIS 3.6 18:17:31 10° SE 18:20:02 25° ENE 18:22:34 10° NNE
Landsat 4 3.9 18:17:43 10° NNE 18:21:23 50° E 18:25:02 10° S
Iridium 4 Rocket 3.5 18:16:58 10° N 18:21:34 43° E 18:25:47 10° SSE
Meteor 1-25 Rocket 4.2 18:18:08 10° S 18:23:35 61° E 18:29:05 10° NNE
CZ-4C R/B 3.6 18:18:52 10° NNW 18:25:03 35° NE 18:31:56 10° E
Cosmos 158 Rocket 3.8 18:20:23 10° SSW 18:25:14 72° ESE 18:30:07 10° NNE
SL-8 R/B 3.7 18:22:35 10° WSW 18:27:22 82° SSE 18:31:56 11° ENE
Cosmos 44 Rocket 4.1 18:22:29 10° NW 18:27:27 60° WSW 18:32:29 10° SSE
Cosmos 1437 Rocket 3.5 18:24:58 10° SSE 18:28:38 33° E 18:32:20 10° NNE
Cosmos 1782 Rocket 4.2 18:25:23 10° SSE 18:29:23 34° E 18:33:23 10° NNE
ATLAS 3B R/B 4.0 18:24:09 10° WSW 18:30:41 37° NW 18:36:59 10° NNE
Cosmos 1633 2.4 18:31:07 10° S 18:34:40 81° E 18:38:16 10° N
COSMO-SKYMED 1 3.1 18:32:22 10° N 18:36:41 63° WNW 18:40:58 10° SSW
Okean 3 3.9 18:34:05 10° NNW 18:38:14 66° W 18:42:23 10° S
Cosmos 1943 3.9 18:35:51 10° NNW 18:40:59 34° NE 18:45:39 12° ESE
Sich 1 Rocket 3.6 18:39:59 10° S 18:44:26 65° E 18:48:51 10° NNE
Tsikada Rocket 4.3 18:38:24 10° SSE 18:44:28 46° E 18:50:32 10° NNE
Cosmos 1048 Rocket 4.0 18:39:37 10° SSW 18:44:54 72° ESE 18:50:10 10° NNE
Gbstr 26 Del rocket 3.7 18:42:39 10° SSW 18:45:54 28° SE 18:47:47 19° E
ALOS 3.6 18:41:45 10° S 18:46:11 43° W 18:50:40 10° NNW
USA 186 3.3 18:46:05 18° ENE 18:46:18 18° ENE 18:48:40 10° NNE
Cosmos 1464 Rocket 4.1 18:45:23 10° N 18:51:32 79° W 18:57:39 10° S
FengYun 1-2 T 4.2 18:48:48 10° SSE 18:54:18 89° ENE 18:59:49 10° NNW
Cosmos 921 Rocket 3.3 18:49:52 10° NNW 18:54:23 74° WSW 18:58:50 10° S
ARGOS Delta rocket 4.3 18:50:54 10° NNE 18:55:20 36° E 18:59:32 10° SSE
Okean 2 Rocket 3.5 18:51:35 10° SSE 18:55:40 39° E 18:59:48 10° NNE
Cosmos 2227 Rocket 3.8 18:51:50 10° WSW 18:56:56 34° NW 19:02:04 10° NNE
SPOT 3 Rocket 4.3 18:53:42 10° S 18:58:49 57° W 19:03:58 10° NNW
ERS-2 2.1 18:56:02 10° SSE 18:59:43 87° WSW 19:03:26 10° NNW
SL-16 R/B 3.7 18:56:29 10° NW 19:01:43 39° WSW 19:06:55 10° S
Cosmos 1939 Rocket 3.9 19:01:05 24° E 19:01:56 26° ENE 19:05:22 10° N
Cosmos 2151 Rocket 4.4 19:01:34 10° SSE 19:05:22 28° E 19:09:09 10° NNE
SeaSat 1 2.6 19:04:39 17° SE 19:08:22 53° NE 19:13:11 10° NNW
H-2A R/B 3.8 19:04:47 10° S 19:08:34 48° W 19:12:22 10° NNW
Cosmos 1908 Rocket 4.4 19:04:34 10° SSW 19:08:56 54° WNW 19:13:20 10° N
Cosmos 2297 Rocket 4.0 19:05:22 10° WSW 19:10:22 31° NW 19:15:25 10° N
Cosmos 1184 Rocket 2.9 19:09:42 10° N 19:12:55 48° ENE 19:13:29 42° ESE
COSMOS 2455 3.2 19:07:26 10° S 19:13:00 41° ESE 19:17:37 15° NE
USA 215 3.7 19:11:43 21° ENE 19:15:28 39° SE 19:21:29 10° SSW
SJ-6B 2.8 19:16:21 10° S 19:20:09 82° WSW 19:24:04 10° NNW
Cosmos 1603 3.8 19:15:13 10° NNW 19:20:53 78° WSW 19:26:29 10° SSE
Cosmos 2346 Rocket 4.4 19:15:41 10° S 19:21:48 67° E 19:27:53 10° NNE
Envisat 2.9 19:24:14 10° SSE 19:29:18 87° ENE 19:34:26 10° NNW
Meteor 1-13 Rocket 4.2 19:26:26 10° NNW 19:31:59 83° W 19:37:30 10° S
CZ-2D R/B 3.5 19:28:53 10° S 19:32:46 70° WSW 19:36:40 10° NNW
Cosmos 1975 Rocket 4.1 19:28:42 10° NNW 19:32:59 49° W 19:37:17 10° SSW
ATLAS CENTAUR R/B 1.4 19:29:44 10° NNW 19:33:53 66° NE 19:34:39 54° ESE
Resurs 1-3 3.5 19:33:27 40° SE 19:34:49 63° ENE 19:39:11 10° N
Cosmos 2263 Rocket 2.3 19:30:17 10° S 19:35:33 47° ESE 19:37:36 33° ENE
Cosmos 494 Rocket 3.8 19:33:18 10° SSW 19:38:31 80° ESE 19:43:43 10° NNE
Cosmos 1634 Rocket 3.8 19:33:22 10° N 19:39:34 76° E 19:45:44 10° SSE
Meteor 1-4 Rocket 2.8 19:39:00 10° SSW 19:42:30 65° WNW 19:46:06 10° N
Thor Agena Rocket 3.5 19:40:06 10° NNE 19:45:13 82° WNW 19:50:15 10° SSW
CENTAUR R/B 3.5 19:42:58 10° WSW 19:48:58 46° NW 19:55:51 10° NNE
ARGOS 4.4 19:51:00 25° NE 19:51:00 25° NE 19:54:07 10° N
USA 267 3.5 19:48:24 38° ENE 19:50:37 54° NNE 19:56:57 10° NW
Cosmos 2142 Rocket 4.4 19:44:18 10° N 19:50:42 79° E 19:55:43 17° SSE
Resurs 01 Rocket 1.6 19:52:52 49° S 19:54:03 84° WSW 19:58:31 10° NNW
YAOGAN 6 3.8 20:01:23 38° NNW 20:01:23 38° NNW 20:03:43 10° NNW
Meteor 2-4 Rocket 4.3 19:56:15 10° NNW 20:01:56 57° W 20:07:25 10° S
Cosmos 1536 Rocket 3.6 19:59:10 10° NNW 20:03:35 74° W 20:03:55 69° SW
Meteor 1-5 Rocket 4.3 20:00:43 10° S 20:06:38 86° W 20:12:40 10° N
SL-8 R/B 3.9 20:05:20 10° W 20:09:55 64° NNW 20:09:55 64° NNW
SJ-11-01 4.3 20:11:11 77° SW 20:11:20 79° WSW 20:16:07 10° NNW
CZ-4C R/B 2.9 20:07:11 10° NW 20:14:20 80° SW 20:17:10 44° SSE
H-2A R/B 3.7 20:18:36 24° NNE 20:18:36 24° NNE 20:21:03 10° N
USA 186 4.1 20:17:38 25° WNW 20:17:38 25° WNW 20:19:47 10° NW
Spot 2 Rocket 3.8 20:17:54 51° SSW 20:18:57 65° WSW 20:24:01 10° NNW
NOAA 11 4.1 20:20:16 80° NNE 20:20:16 80° NNE 20:25:28 10° NNW
BREEZE-M DEB (TANK) 4.5 20:18:33 10° W 20:19:29 17° WSW 20:19:29 17° WSW
Cosmos 1943 4.2 20:19:49 10° NW 20:25:09 44° WSW 20:27:32 29° SSW
Cosmos 2180 Rocket 4.4 20:26:29 10° N 20:32:43 88° W 20:32:49 87° SW
COSMOS 2406 4.5 20:28:20 10° NNW 20:31:37 29° NNE 20:31:37 29° NNE
Cosmos 2251 Rocket 4.1 20:31:01 10° SW 20:36:09 56° WNW 20:36:55 50° NNW
SeaSat 1 4.4 20:44:27 20° SW 20:46:08 24° WSW 20:50:08 10° NW
USA 215 3.3 20:59:05 72° NW 20:59:05 72° NW 21:05:17 10° WSW
COSMOS 2455 3.9 20:53:14 10° WSW 20:58:56 42° NW 21:00:54 33° N
ATLAS CENTAUR R/B 4.4 21:09:48 10° WNW 21:10:57 14° W 21:10:57 14° W
Cosmos 2263 Rocket 3.7 21:14:44 10° WSW 21:19:30 31° NW 21:19:30 31° NW
USA 267 4.2 21:35:45 42° WNW 21:35:45 42° WNW 21:40:05 10° NW
